Weather History for KPHD - July, 2012

Change the Weather History Date:

Tuesday, July 24, 2012

  Actual Average Record
Temperature  
Mean Temperature 74 °F 73 °F  
Max Temperature 87 °F 84 °F 93 °F (1991)
Min Temperature 61 °F 62 °F 49 °F (1985)
Degree Days  
Heating Degree Days 0 0  
Month to date heating degree days 0 0  
Since 1 June heating degree days 18 35  
Since 1 July heating degree days 0 0  
Cooling Degree Days 9 8  
Month to date cooling degree days 311 183  
Year to date cooling degree days 630 369  
Since 1 June cooling degree days 483 326  
Growing Degree Days 27 (Base 50)    
Moisture  
Dew Point 68 °F    
Average Humidity 76    
Maximum Humidity 93    
Minimum Humidity 58    
Precipitation  
Precipitation 0.02 in 0.14 in - ()
Month to date precipitation 3.20 3.00  
Year to date precipitation 15.68 22.33  
Sea Level Pressure  
Sea Level Pressure 29.88 in    
Wind  
Wind Speed 6 mph (NW)    
Max Wind Speed 23 mph    
Max Gust Speed 31 mph    
Visibility 9 miles    
Events Rain    
T = Trace of Precipitation, MM = Missing Value Source: NWS Daily Summary

Daily Weather History Graph

Daily Weather History Graph

Search for Another Location

Airport or City:

Trip Planner

Search our weather history database for the weather conditions in past years. The results will help you decide how hot, cold, wet, or windy it might be!

Date:

Astronomy

Jul. 24, 2012 Rise Set
Actual Time 6:16 AM EDT 8:47 PM EDT
Civil Twilight 5:44 AM EDT 9:19 PM EDT
Nautical Twilight 5:05 AM EDT 9:57 PM EDT
Astronomical Twilight 4:22 AM EDT 10:41 PM EDT
Moon 12:13 PM EDT (7/24) 11:33 PM EDT (7/24)
Length of Visible Light 15h 34m
Length of Day
14h 31m
Waxing Crescent, 31% of the Moon is Illuminated
Jul 24
Waxing Crescent
Jul 26
First Quarter
Aug 1
Full
Aug 9
Last Quarter
Aug 17
New

Hourly Weather History & Observations

Time (EDT) Temp. Heat Index Dew Point Humidity Pressure Visibility Wind Dir Wind Speed Gust Speed Precip Events Conditions
12:53 AM 79.0 °F - 71.1 °F 77% 29.91 in 9.0 mi Calm Calm - N/A   Clear
1:53 AM 77.0 °F - 71.1 °F 82% 29.90 in 7.0 mi Calm Calm - N/A   Clear
2:53 AM 75.9 °F - 71.1 °F 85% 29.89 in 6.0 mi Calm Calm - N/A   Haze
3:53 AM 73.0 °F - 71.1 °F 93% 29.87 in 5.0 mi Calm Calm - N/A   Clear
4:53 AM 73.9 °F - 71.1 °F 91% 29.87 in 4.0 mi SE 3.5 mph - N/A   Clear
5:53 AM 75.0 °F - 72.0 °F 90% 29.87 in 5.0 mi South 3.5 mph - N/A   Clear
6:53 AM 77.0 °F - 71.1 °F 82% 29.88 in 7.0 mi West 3.5 mph - N/A   Clear
7:53 AM 78.1 °F - 72.0 °F 81% 29.87 in 8.0 mi Calm Calm - N/A   Clear
8:53 AM 79.0 °F - 72.0 °F 79% 29.88 in 10.0 mi Calm Calm - N/A   Partly Cloudy
9:53 AM 77.0 °F - 73.0 °F 88% 29.87 in 8.0 mi Calm Calm - 0.02 in Rain Light Rain
10:53 AM 79.0 °F - 73.0 °F 82% 29.89 in 8.0 mi WNW 6.9 mph - N/A   Partly Cloudy
11:53 AM 80.1 °F 83.8 °F 72.0 °F 76% 29.89 in 9.0 mi WNW 8.1 mph - N/A   Mostly Cloudy
12:53 PM 84.0 °F 89.6 °F 72.0 °F 67% 29.89 in 10.0 mi NW 13.8 mph 20.7 mph N/A   Partly Cloudy
1:53 PM 82.9 °F 86.5 °F 69.1 °F 63% 29.89 in 10.0 mi West 13.8 mph 24.2 mph N/A   Partly Cloudy
2:53 PM 84.0 °F 88.4 °F 70.0 °F 63% 29.85 in 10.0 mi NW 15.0 mph 23.0 mph N/A   Partly Cloudy
3:53 PM 84.0 °F 89.0 °F 71.1 °F 65% 29.82 in 10.0 mi WNW 10.4 mph - N/A   Scattered Clouds
4:53 PM 84.9 °F 88.2 °F 68.0 °F 57% 29.82 in 10.0 mi North 10.4 mph - N/A   Partly Cloudy
5:53 PM 82.9 °F 85.4 °F 66.9 °F 58% 29.84 in 10.0 mi North 10.4 mph - N/A   Mostly Cloudy
6:53 PM 82.0 °F 84.1 °F 66.0 °F 58% 29.88 in 10.0 mi North 10.4 mph 18.4 mph N/A   Scattered Clouds
7:53 PM 80.1 °F 81.7 °F 64.0 °F 58% 29.88 in 10.0 mi North 9.2 mph - N/A   Clear
8:53 PM 75.9 °F - 62.1 °F 62% 29.91 in 10.0 mi NNW 8.1 mph - N/A   Clear
9:53 PM 73.0 °F - 61.0 °F 66% 29.94 in 10.0 mi NNW 9.2 mph 18.4 mph N/A   Clear
10:53 PM 70.0 °F - 55.9 °F 61% 29.96 in 10.0 mi North 5.8 mph - N/A   Clear
11:53 PM 64.0 °F - 57.0 °F 78% 29.96 in 10.0 mi Calm Calm - N/A   Clear